Voltar ao catálogo

CZ-6A DEB

AtivoSSO
NORAD 55548·DEBRIS·🇨🇳 China

Lançado Nov 11, 2022 de Taiyuan Satellite Launch Center

Loading…

Próximas Passagens (próximas 24 horas)

TLE

AtualizadoSource: Space-Track

Época: Sep 14, 2026, 12:24 UTC

1 55548U 22151YW  26257.51697771  .00002407  00000-0  82301-3 0  9993
2 55548  98.6814 276.2125 0066378 210.1600 149.5757 14.35986325199553

Acompanhe CZ-6A DEB em tempo real com AllMySat

Download on the App Store